Location: The Saddle
(36.8333°N, 80.3417°W)
Time: 11:25:52
(UTC-04:00)

AO-27 - Visible Passes

Search period start: 27 March 2023 00:00
Search period end: 06 April 2023 00:00
Orbit: 785 x 796 km, 98.9° (Epoch: 27 March)

Date Brightness Start Highest point End Pass type
(mag) Time Alt. Az. Time Alt. Az. Time Alt. Az.
27 Mar 8.5 21:31:06 10° S 21:36:06 48° W 21:41:08 10° NNW visible
28 Mar 7.6 21:01:34 10° SSE 21:06:46 87° ENE 21:12:00 10° NNW visible
29 Mar 8.0 20:32:38 10° SE 20:37:33 45° ENE 20:42:31 10° N visible
29 Mar 10.0 22:13:33 10° SW 22:17:12 19° W 22:20:52 10° NW visible
30 Mar 8.8 20:04:22 10° ESE 20:08:29 24° ENE 20:12:37 10° NNE visible
30 Mar 9.0 21:42:54 10° SSW 21:47:41 37° W 21:52:31 10° NNW visible
31 Mar 7.8 21:13:08 10° S 21:18:19 73° WSW 21:23:33 10° NNW visible
01 Apr 7.7 20:43:58 10° SSE 20:49:04 58° ENE 20:54:10 10° N visible
01 Apr 10.3 22:25:59 10° SW 22:28:51 15° W 22:31:44 10° WNW visible
02 Apr 8.5 20:15:26 10° SE 20:19:55 31° ENE 20:24:27 10° N visible
02 Apr 9.4 21:54:50 10° SSW 21:59:18 29° W 22:03:48 10° NW visible
03 Apr 8.2 21:24:46 10° S 21:29:52 57° W 21:35:01 10° NNW visible
04 Apr 7.6 20:55:23 10° SSE 21:00:34 75° ENE 21:05:48 10° N visible
04 Apr 10.5 22:39:05 10° WSW 22:40:31 11° W 22:41:58 10° WNW visible
05 Apr 8.2 20:26:36 10° SE 20:31:23 39° ENE 20:36:13 10° N visible
05 Apr 9.8 22:06:53 10° SSW 22:10:55 23° W 22:14:59 10° NW visible
